Weather in Yagodnaya

Russia / Kurgan Oblast     56°05′35″N   65°05′06″E
temp.,
°C
wind,
m/s
gust,
m/s
humid.,
%
clouds,
%
prec.,
mm/h
press.,
hPa
HPBL,
m
22 january, sat
sat2223:00−19sw239598 0.0 102739
02:00−20wsw349279 0.0 102848
05:00−20wsw3392100 0.0 102939
08:00−20sw2295100 0.0 103031
11:00−16sw249031 0.0 103173
14:00−11wsw238945 0.0 103190
17:00−16wsw2295100 0.0 10329
20:00−19ssw229856 0.0 103310
23 january, sun
sun2323:00−20wsw229733 0.0 103511
02:00−21wsw229695 0.0 103510
05:00−22wsw229664 0.0 10369
08:00−23sw119619 0.0 10379
11:00−17sw12887 0.0 103841
14:00−12sw12857 0.0 103870
17:00−17wsw11945 0.0 10399
20:00−20ssw229887 0.0 104010
24 january, mon
mon2423:00−17sw229399 0.0 104128
02:00−21sw229599 0.0 104111
05:00−17sw2290100 0.0 104124
08:00−16sw2390100 0.0 104253
11:00−13sw3585100 0.0 1041125
14:00−10sw2585100 0.0 1040176
17:00−11ssw3590100 0.0 104082
20:00−12ssw3589100 0.0 1039100
25 january, tue
tue2523:00−14ssw3688100 0.0 103796
02:00−14ssw3787100 0.0 1036115
05:00−14sw3789100 0.0 1034116
08:00−12wsw3694100 0.0 1033124
11:00−9w379675 0.2 1032182
14:00−8w479584 0.1 1031279
17:00−13w369755 0.1 103159
20:00−16w369974 0.0 103166
26 january, wed
wed2623:00−18w34100100 0.0 103148
02:00−18w3410080 0.0 103049
05:00−19w359937 0.0 103051
08:00−21w2210060 0.0 103031
11:00−14w249643 0.0 103088
14:00−9w3591100 0.0 1029200
17:00−15wsw229750 0.0 103026
20:00−16w359721 0.0 103151